Simultaneous Nadir Overpasses (SNOs) Predictions

Prediction of SNOs between GOES-16 and AQUA Satellite Orbit:

Table of predicted SNOs for the next 14.0 days since TLE Epoch: 9/30/2023
Index Date Time (GOES-16) GOES-16 Lat,Lon AQUA Lat,Lon Distance(km) Time Diff (sec)
1 09/30/2023 06:51:34 0.04, -75.21 -0.22, -73.97 140.60 80
2 09/30/2023 19:09:40 -0.04, -75.21 -0.87, -79.00 430.73 80
3 10/02/2023 18:55:02 -0.04, -75.23 -0.11, -75.43 23.30 80
4 10/04/2023 18:43:04 -0.04, -75.24 0.70, -71.86 384.96 80
5 10/05/2023 07:03:40 0.04, -75.24 0.38, -76.85 183.04 80
6 10/07/2023 06:46:21 0.03, -75.26 -0.38, -73.27 226.10 80
7 10/07/2023 19:07:06 -0.03, -75.27 -0.67, -78.30 344.71 80
8 10/09/2023 18:55:05 -0.02, -75.30 0.09, -74.72 65.91 80
9 10/11/2023 18:40:24 -0.02, -75.34 0.90, -71.14 477.76 80
10 10/12/2023 07:01:00 0.02, -75.35 0.19, -76.13 89.00 80
